This demonstration page uses our WeatherBlox Daily Observations layout. Learn more.

Left ArrowRight Arrow

Hourly Observations for July 28, 2022

Temp ( °F °C ) Dew Point ( °F °C ) Humidity (%) Winds ( mph kmh ) Pressure ( in mb ) Visibility ( mi km ) Precip ( " mm )
12:59 am 00:59 Mostly Cloudy 80 26.7 73 22.8 79 79 SW 9 15 29.97 1015 10 16 0.00 0.00
1:59 am 01:59 Mostly Cloudy 80 26.7 73 22.8 79 79 SW 8 13 29.97 1015 10 16 0.00 0.00
2:59 am 02:59 Mostly Cloudy 77 25 72 22.2 85 85 WSW 6 9 29.95 1014 10 16 0.00 0.00
3:59 am 03:59 Mostly Cloudy 78 25.6 70 21.1 76 76 SW 6 9 29.94 1014 10 16 0.00 0.00
4:59 am 04:59 Mostly Cloudy 77 25 71 21.7 82 82 SSW 6 9 29.95 1014 10 16 0.00 0.00
5:59 am 05:59 Mostly Cloudy 76 24.4 71 21.7 85 85 SW 7 11 29.95 1014 10 16 0.00 0.00
6:59 am 06:59 Mostly Cloudy 78 25.6 73 22.8 85 85 SW 9 15 29.95 1014 10 16 0.00 0.00
7:59 am 07:59 Partly Cloudy 80 26.7 74 23.3 82 82 WSW 8 13 29.95 1014 10 16 0.00 0.00
8:59 am 08:59 Mostly Cloudy 80 26.7 74 23.3 82 82 WSW 8 13 29.95 1014 10 16 0.00 0.00
9:59 am 09:59 Mostly Cloudy 83 28.3 74 23.3 74 74 SW 12 19 29.93 1014 10 16 0.00 0.00
10:59 am 10:59 Partly Cloudy 89 31.7 76 24.4 65 65 SW 10 17 29.94 1014 10 16 0.00 0.00
11:59 am 11:59 Partly Cloudy 91 32.8 77 25 64 64 W 12 19 29.92 1013 10 16 0.00 0.00
12:59 pm 12:59 Mostly Cloudy 92 33.3 77 25 62 62 W 10 17 29.92 1013 10 16 0.00 0.00
1:59 pm 13:59 Mostly Cloudy 93 33.9 77 25 60 60 W 10 17 29.91 1013 10 16 0.00 0.00
2:59 pm 14:59 Mostly Cloudy 91 32.8 69 20.6 49 49 W 14 22 29.91 1013 10 16 0.00 0.00
3:59 pm 15:59 Mostly Cloudy 91 32.8 69 20.6 49 49 W 12 19 29.90 1012 10 16 0.00 0.00
4:59 pm 16:59 Mostly Cloudy 94 34.4 73 22.8 51 51 SW 13 20 29.88 1012 10 16 0.00 0.00
5:59 pm 17:59 Mostly Cloudy 94 34.4 73 22.8 51 51 WSW 12 19 29.88 1012 10 16 0.00 0.00
6:59 pm 18:59 Mostly Cloudy 93 33.9 70 21.1 47 47 W 10 17 29.89 1012 10 16 0.00 0.00
7:59 pm 19:59 Mostly Cloudy 91 32.8 72 22.2 54 54 WSW 7 11 29.91 1013 10 16 0.00 0.00
8:59 pm 20:59 Mostly Cloudy 89 31.7 72 22.2 57 57 WSW 3 6 29.91 1013 10 16 0.00 0.00
9:59 pm 21:59 Mostly Cloudy with Thunderstorms 89 31.7 74 23.3 61 61 SW 3 6 29.93 1014 10 16 0.00 0.00
10:59 pm 22:59 Mostly Cloudy with Thunderstorms 80 26.7 72 22.2 76 76 SSW 10 17 29.95 1014 10 16 0.00 0.00
11:11 pm 23:11 Mostly Cloudy 80 26.7 72 22.2 76 76 SW 7 11 29.95 1014 10 16 0.00 0.00
11:59 pm 23:59 Mostly Cloudy 79 26.1 73 22.8 82 82 SW 6 9 29.94 1014 10 16 0.00 0.00

Powered by AerisWeather